User: anonymous   Login
Location: Poughquag
(41.6090°N, 73.6820°W)
Time: 16:51:39
(UTC-04:00)
Language:

ITUPSAT 1 - Orbit

View from above orbital plane
View from above orbital plane
View from above satellite
View from above satellite

Ground track
Ground track

The orbit data is extracted from the following two-line orbital elements,

1 35935U 09051E   24197.39221001  .00001611  00000-0  36215-3 0  9990
2 35935  98.4705  81.9074 0006544 248.4132 111.6369 14.57865652786379
Epoch (UTC): 15 July 2024 09:24:46
Eccentricity: 0.0006544
inclination: 98.4705°
perigee height: 695 km
apogee height: 705 km
right ascension of ascending node: 81.9074°
argument of perigee: 248.4132°
revolutions per day: 14.57865652
mean anomaly at epoch: 111.6369°
orbit number at epoch: 78637

The dashed part of the orbit path shows where the satellite is in the earth's shadow,  

DLR